Дата Пункты Температура Давл., мм. Влажн., % Ветер Погодные явления
Воздуха Воды Направл. Скорость
11.12.14 04:00 Одесса 2.0 2.0 759 98 З 2 05 часов
11.12.14 01:00 Одесса 2.0 2.0 759 100 С-З 1 02 часа
10.12.14 10:00 Одесса 2.0 3.0 759 100 С-З 2 23 часа
10.12.14 07:00 Одесса 2.0 3.0 759 100 С-З 3 20 часов
10.12.14 04:00 Одесса 3.0 2.0 758 98 С 4 17 часов
10.12.14 01:00 Одесса 2.0 2.0 759 99 С 4 14 часов
10.12.14 10:00 Одесса 2.0 2.0 759 98 С 5 11 часов
10.12.14 07:00 Одесса 2.0 2.0 759 97 С 1 08 часов
10.12.14 04:00 Одесса 2.0 2.0 759 96 С 3 05 часов
10.12.14 01:00 Одесса 2.0 2.0 759 94 С 5 02 часа
09.12.14 10:00 Одесса 2.0 2.0 759 97 С 5 23 часа
09.12.14 07:00 Одесса 3.0 2.0 759 98 С 6 20 часов
09.12.14 04:00 Одесса 3.0 2.0 759 99 С 3 17 часов
09.12.14 01:00 Одесса 3.0 2.0 758 100 С 7 14 часов
09.12.14 10:00 Одесса 2.0 2.0 759 100 С 6 11 часов
09.12.14 07:00 Одесса 2.0 2.0 759 98 С 6 08 часов
09.12.14 04:00 Одесса 1.0 2.0 759 100 С 4 05 часов
09.12.14 01:00 Одесса 1.0 2.0 760 100 С 4 02 часа
08.12.14 10:00 Одесса 1.0 2.0 760 98 С 4 23 часа
08.12.14 07:00 Одесса 1.0 2.0 760 100 С 3 20 часов
Количество строк
361 362 363 364 365 366 367 368 369 370
Page 361 of 394